User: anonymous   Login
Location: Darlington Observatory
(36.4817°N, 105.8156°W)
Time: 05:53:00
(UTC-06:00)
Language:

MOS 1 - Orbit

View from above orbital plane
View from above orbital plane
View from above satellite
View from above satellite

Ground track
Ground track

The orbit data is extracted from the following two-line orbital elements,

1 17527U 87018A   14304.45850336 -.00000060  00000-0 -94634-5 0  6673
2 17527 099.2299 287.2829 0009702 057.6169 053.3007 14.02319818414930
Epoch (UTC): 31 October 2014 11:00:14
Eccentricity: 0.0009702
inclination: 99.2299°
perigee height: 879 km
apogee height: 893 km
right ascension of ascending node: 287.2829°
argument of perigee: 57.6169°
revolutions per day: 14.02319818
mean anomaly at epoch: 53.3007°
orbit number at epoch: 41493

The dashed part of the orbit path shows where the satellite is in the earth's shadow,  

DLR